Regional Weather Roundup
Issued by NWS

Home | Current Version | Previous Version | Text Only | Print | Product List | Glossary On
Versions: 1 2 3 4 5 6 7 8 9 10 11 12 13 14 15 16 17 18 19 20 21 22 23 24 25 26 27
000
ASPQ40 PGUM 310612
RWRPQ
WEATHER ROUNDUP FOR THE MARIANAS AND MICRONESIA
NATIONAL WEATHER SERVICE TIYAN GU
400 PM CHST FRI OCT 31 2014

GUZ001>004-310700-
MARIANA ISLANDS-

CITY           SKY/WX    TMP DP  RH WIND       PRES   REMARKS
GUAM AIRPORT   MOSUNNY   84  73  70 E13       29.73S HX  91
ANDERSEN AFB   PTSUNNY   81  73  78 E13       29.74R
ROTA AIRPORT   LGT RAIN  73  72  94 E17       29.75R
TINIAN AP      PTSUNNY   79  75  89 E9        29.72R
SAIPAN AP      LGT RAIN  77  75  94 SE15G25   29.74R

$$

PMZ161-310700-
REPUBLIC OF PALAU-

CITY           SKY/WX    TMP DP  RH WIND       PRES   REMARKS
KOROR AP       CLOUDY    82  79  89 SW13      29.65F HX  93
KOROR WSO      CLOUDY    84  75  74 W17       29.64F HX  92

$$

PMZ171>174-310700-
FEDERATED STATES OF MICRONESIA-

CITY           SKY/WX    TMP DP  RH WIND       PRES   REMARKS
YAP AIRPORT    LGT RAIN  81  79  94 SW8       29.61S
CHUUK AP       CLOUDY    84  81  89 NW7       29.73R HX  98
POHNPEI AP     NOT AVBL
POHNPEI WSO    CLOUDY    84  79  84 VRB3      29.79R HX  96
KOSRAE AP      NOT AVBL

$$

PMZ181-310700-
REPUBLIC OF THE MARSHALL ISLANDS-

CITY           SKY/WX    TMP DP  RH WIND       PRES   REMARKS
KWAJALEIN AP   PTCLDY    86  75  70 NE14      29.75R HX  95
MAJURO AP      NOT AVBL
MAJURO WSO     CLOUDY    84  77  79 S6        29.73R HX  94

$$




USA.gov is the U.S. government's official web portal to all federal, state and local government web resources and services.